Address 0x236459414152a935b5c297ea209ab2e723be0dc2

 
 
Txn Hash Method
Block
From
To
Value [Txn Fee]
0x767d8199ec4dd2e597f6381b52e996b8d38a64b4a1e286ebcbd410f5b46d10460xe69c8ab0119875902021-10-22 8:05:401 hr 14 mins ago0x236459414152a935b5c297ea209ab2e723be0dc2OUT 0x6778f69f83c7d42612500efe0bcd278c112688f60 BNB0.001657625
0x039769ffa90a8b925062976cf1157ab8650d903dd2283b80630da4969abe26950x94ac0d18119875242021-10-22 8:02:201 hr 17 mins ago0x236459414152a935b5c297ea209ab2e723be0dc2OUT 0x6778f69f83c7d42612500efe0bcd278c112688f60 BNB0.000540465
0x92d48a7e32e20f48487d40575bb312546038eb36e4df5ad99c4bed0306ed0fdb0x94ac0d18119875152021-10-22 8:01:511 hr 18 mins ago0x236459414152a935b5c297ea209ab2e723be0dc2OUT 0x6778f69f83c7d42612500efe0bcd278c112688f60 BNB0.000540465
0xa97de8b90ad20acbbd8be449f8b659f82db9c6f0e169f836bd746984a3056b10Buy NFT119874222021-10-22 7:56:521 hr 23 mins ago0x236459414152a935b5c297ea209ab2e723be0dc2OUT 0xe0dd2e782c406914971e12243023d61acd5e29580 BNB0.000938965
0xb140b82342ab45397e1979d20dd247854342d464232f10b064349c2159449c88Buy NFT119874012021-10-22 7:55:471 hr 24 mins ago0x236459414152a935b5c297ea209ab2e723be0dc2OUT 0xe0dd2e782c406914971e12243023d61acd5e29580 BNB0.000186205
0x9147316136f197d33e9e71520a998e30ca747fccc5f55842e1825e9c4d391005Buy NFT119873672021-10-22 7:54:021 hr 26 mins ago0x236459414152a935b5c297ea209ab2e723be0dc2OUT 0xe0dd2e782c406914971e12243023d61acd5e29580 BNB0.000938965
0x62b10d74b5b02d43893f3775838089e82961d0f0168c40ef096eab361f551a4eBuy NFT119873442021-10-22 7:52:521 hr 27 mins ago0x236459414152a935b5c297ea209ab2e723be0dc2OUT 0xe0dd2e782c406914971e12243023d61acd5e29580 BNB0.00105537
0x4d9535dc8655b5b800bb8087cc6cbd024b9beeef2d07c91993d359878c9f3e34Approve119873272021-10-22 7:52:011 hr 28 mins ago0x236459414152a935b5c297ea209ab2e723be0dc2OUT CryptoMines: ETERNAL Token0 BNB0.000223965
0x49669e385048280304185eef64fd154b2dbd64955aa680f237f3cf3b0f325bc5Approve119873142021-10-22 7:51:221 hr 28 mins ago0x236459414152a935b5c297ea209ab2e723be0dc2OUT CryptoMines: ETERNAL Token0 BNB0.000223965
0xabb7789a68b671c667ddb094efe2aab56001511ed7a36b63ab62dfa006864cf6Transfer119176792021-10-19 20:46:062 days 12 hrs ago0x236459414152a935b5c297ea209ab2e723be0dc2OUT Plant vs Undead: PVU Token0 BNB0.000110365
0xf924a3040eae88a9750239c31ece17d0c08cc42141c1bc886a9e23dc0e67e715Create Sale Auct...119176472021-10-19 20:44:302 days 12 hrs ago0x236459414152a935b5c297ea209ab2e723be0dc2OUT 0x5ab19e7091dd208f352f8e727b6dcc6f8abb62750 BNB0.00084788
0xc7f575bb17ec7527283f59906c6504a71239372146b3ab4b632f58ea699f301dCancel Auction119175882021-10-19 20:41:332 days 12 hrs ago0x236459414152a935b5c297ea209ab2e723be0dc2OUT 0x926eae99527a9503eadb4c9e927f21f84f20c9770 BNB0.00036267
0x94f83ed296053653425d996bd9b4dd0190d0471bce70e8d1f85989850d25acc4Transfer119143032021-10-19 17:32:332 days 15 hrs ago0x236459414152a935b5c297ea209ab2e723be0dc2OUT Plant vs Undead: PVU Token0 BNB0.000110545
0x0f26d1bbb580cfdabfd78b6b1ae3f347b5b54d8a9e805225c68935221edd1648Create Sale Auct...119094482021-10-19 13:24:312 days 19 hrs ago0x236459414152a935b5c297ea209ab2e723be0dc2OUT 0x5ab19e7091dd208f352f8e727b6dcc6f8abb62750 BNB0.000848
0xc5b8315d71a20de16157877c071a5017d56f0e70c73ff49f2b1fa66d2017398fCancel Auction119094202021-10-19 13:23:072 days 19 hrs ago0x236459414152a935b5c297ea209ab2e723be0dc2OUT 0x926eae99527a9503eadb4c9e927f21f84f20c9770 BNB0.00036267
0xb7990f6a57ef65e6c3690432a6c383a4d5ea5e1eb6e85ce2049ec4f8c6790de9Create Sale Auct...119093962021-10-19 13:21:552 days 19 hrs ago0x236459414152a935b5c297ea209ab2e723be0dc2OUT 0x5ab19e7091dd208f352f8e727b6dcc6f8abb62750 BNB0.000848
0x9c6ce1b9e6d3df142ecb1540bc2011ff8431b94be38410c20729c296d63d69ddCancel Auction119093652021-10-19 13:20:222 days 19 hrs ago0x236459414152a935b5c297ea209ab2e723be0dc2OUT 0x926eae99527a9503eadb4c9e927f21f84f20c9770 BNB0.00036267
0x7500f858ae509e0fe88397d3e85798cff22511fabc1d6dce545ca845c9bf225cCreate Sale Auct...119093302021-10-19 13:18:372 days 20 hrs ago0x236459414152a935b5c297ea209ab2e723be0dc2OUT 0x5ab19e7091dd208f352f8e727b6dcc6f8abb62750 BNB0.000848
0xe759fde54920b7cd6df4cbd9ee689fb77b5d0b11533c7eb9b988044bf8574de4Cancel Auction119093142021-10-19 13:17:492 days 20 hrs ago0x236459414152a935b5c297ea209ab2e723be0dc2OUT 0x926eae99527a9503eadb4c9e927f21f84f20c9770 BNB0.00036267
0xa25ad66d09e1c3714179a75e3d9b2024476ea83bb66483643226b3f904b5f665Create Sale Auct...119092852021-10-19 13:16:222 days 20 hrs ago0x236459414152a935b5c297ea209ab2e723be0dc2OUT 0x5ab19e7091dd208f352f8e727b6dcc6f8abb62750 BNB0.000848
0xa2e540c567fd5f7b8855fb5e7cf1d9062f4b95160ce13f910095c38c58d52db5Cancel Auction119092482021-10-19 13:14:312 days 20 hrs ago0x236459414152a935b5c297ea209ab2e723be0dc2OUT 0x926eae99527a9503eadb4c9e927f21f84f20c9770 BNB0.00036267
0x66d16e928d5c7bb94b0e31f7b388664b7c9dc161c4561bdc65e0f95828399f52Create Sale Auct...119018982021-10-19 7:05:213 days 2 hrs ago0x236459414152a935b5c297ea209ab2e723be0dc2OUT 0x5ab19e7091dd208f352f8e727b6dcc6f8abb62750 BNB0.000848
0xf5677db49190f42f93da3b73bc334cc9f9eaa7d66b0886de2852fdca955e647dCreate Sale Auct...119018352021-10-19 7:02:123 days 2 hrs ago0x236459414152a935b5c297ea209ab2e723be0dc2OUT 0x5ab19e7091dd208f352f8e727b6dcc6f8abb62750 BNB0.000848
0x8302479b713e78023834d9ad16d0f5b243c59e8b16d4b4650fcb574c2d71c965Create Sale Auct...119017822021-10-19 6:59:333 days 2 hrs ago0x236459414152a935b5c297ea209ab2e723be0dc2OUT 0x5ab19e7091dd208f352f8e727b6dcc6f8abb62750 BNB0.00089
0xe0a9c8679345de197e3680e9c62adeb299512d899af9a6354e64d643a35aa447Create Sale Auct...119016562021-10-19 6:53:153 days 2 hrs ago0x236459414152a935b5c297ea209ab2e723be0dc2OUT 0x5ab19e7091dd208f352f8e727b6dcc6f8abb62750 BNB0.00089
[ Download CSV Export 
Latest 3 internal transactions
Parent Txn Hash Block From To Value
0x1c7114f6d58172153f5d65d7dec73c5b2c7a5006395e8063e613860dfc05e2ec112385862021-09-26 2:12:5226 days 7 hrs ago PancakeSwap: Router v20x236459414152a935b5c297ea209ab2e723be0dc20.000133581857696434 BNB
0xfd1e9f740732269b32ac6dad7cdc8db798103cf3f747b0d851ab293f81041395110895982021-09-20 21:20:3831 days 11 hrs ago PancakeSwap: Router v20x236459414152a935b5c297ea209ab2e723be0dc20.237362999898584787 BNB
0xbc0485948c7340b7a9d53e59e6653d0f56ac7a3758295c1596a9abfd86a3c2c1109982602021-09-17 16:52:0734 days 16 hrs ago PancakeSwap: Router v20x236459414152a935b5c297ea209ab2e723be0dc20.000485294041198848 BNB
[ Download CSV Export 
Loading

Contract Name:
0 BNB

Compiler Version
0

Optimization Enabled:
0 BNB

Other Settings:
-NA-
Block Transaction Gas Used Reward
Age Block Fee Address BC Fee Address Voting Power Jailed Incoming
Block Uncle Number Difficulty Gas Used Reward
Loading
Loading
Make sure to use the "Vote Down" button for any spammy posts, and the "Vote Up" for interesting conversations.